Terminal Aerodrome Forecast
Issued by NWS Atlanta, GA

Home | Current Version | Previous Version | Text Only | Print | Product List | Glossary On
Versions: 1 2 3 4 5 6 7 8 9 10 11 12 13 14 15 16
376
FTUS42 KFFC 182333
TAFMCN
TAF
KMCN 182333Z 1900/1924 20010KT P6SM OVC050
     FM190300 23018G30KT P6SM VCSH OVC025 WS020/21030KT
      TEMPO 1903/1906 29020G35KT 3SM SHRA BR OVC020
     FM190700 31015G25KT P6SM VCSH BKN030
     FM191000 32015KT P6SM BKN040
     FM191400 32014G22KT P6SM SCT250
     FM191800 32012G20KT P6SM SKC=

USA.gov is the U.S. government's official web portal to all federal, state and local government web resources and services.